059  
NZUS99 KDVN 190110  
HRRRRR  
HOURLY WEATHER ROUNDUP  
NATIONAL WEATHER SERVICE QUAD CITIES IA IL  
700 PM CST SUN FEB 18 2018  
 
NOTE: "FAIR" INDICATES FEW OR NO CLOUDS BELOW 12,000 FEET WITH  
NO SIGNIFICANT WEATHER AND/OR OBSTRUCTIONS TO VISIBILITY.  
------------------------------------------------------------------  
 
CITY SKY/WX TMP DP RH WIND PRES REMARKS  
BURLINGTON PTCLDY 44 27 51 S20G26 29.79F WCI 36  
CEDAR RAPIDS FAIR 43 29 57 S18G28 29.72F WCI 35  
DAVENPORT FAIR 42 29 59 SE17 29.84R WCI 34  
DUBUQUE FAIR 36 29 75 S23 29.77R WCI 24  
IOWA CITY FAIR 41 29 62 SE10 29.77F WCI 35  
MOLINE FAIR 42 30 62 S9 29.83R WCI 37  
------------------------------------------------------------------  
THE STATIONS BELOW ARE NOT NWS STATIONS AND ARE NOT SUBJECT TO NWS  
QUALITY CONTROL. SOME STATIONS DO NOT REPORT WEATHER SUCH AS FOG.  
* - STATIONS THAT REPORT TMP AND DP IN WHOLE DEGREES CELSIUS, WHICH  
ARE THEN CONVERTED TO FAHRENHEIT.  
------------------------------------------------------------------  
 
CITY SKY/WX TMP DP RH WIND PRES REMARKS  
CLINTON FAIR 39 31 72 MISG N/A  
FAIRFIELD * PTCLDY 46 27 46 S18G25 29.73R WCI 39  
FORT MADISON * CLEAR 45 30 57 S17G26 29.79F WCI 37  
FREEPORT FAIR 37 31 81 S25 29.86F WCI 25  
INDEPENDENCE * FAIR 34 30 86 SE9 29.75S WCI 27  
KEOKUK * CLEAR 46 28 49 S13G22 29.78F WCI 41  
MACOMB PTCLDY 41 32 70 S20G25 29.86F WCI 32  
MONTICELLO * FAIR 39 30 70 SE13G18 29.78R WCI 32  
MT PLEASANT PTCLDY 41 30 65 S17G23 29.78R WCI 32  
MUSCATINE * FAIR 43 28 56 SE14 29.80R WCI 36  
SAVANNA FAIR 38 31 77 SE17 29.83F WCI 28  
STERLING/R.F. FAIR 38 32 79 SE9 29.88F WCI 31  
VINTON * FAIR 40 30 66 S8 29.75R WCI 35  
WASHINGTON * PTCLDY 41 32 70 SE14 29.76S WCI 33  
------------------------------------------------------------------  
 
 
CLICK HERE TO GO TO PREVIOUS BULLETINS.

The Nexlab IL Page
The Nexlab IA Page
The Nexlab MO Page Main Text Page